Hourly Data Report for May 17, 2022

STE-ANNE-DE-BELLEVUE 1
QUEBEC
Current Station Operator: ECCC - MSC

45°25'38.000" N
73°55'45.000" W
39.00 m
702FHL8
71377
WVQ

Download Data

Hourly Data (May 2022)
Hourly Data Report for May 17, 2022
TIME
LST
Temp Definition
°C
Dew Point Definition
°C
Rel Hum Definition
%
Precip. Amount Definition
mm

Wind Dir Definition
10's deg

Wind Spd Definition
km/h
Visibility Definition
km
Stn Press Definition
kPa
Hmdx Definition


Wind Chill Definition


Weather Definition


00:00 13.0 10.8 86 0.0 25 26   99.18     LegendNANA
01:00 12.1 10.6 90 0.0 26 25   99.20     LegendNANA
02:00 11.8 9.6 86 0.0 26 27   99.23     LegendNANA
03:00 11.2 9.0 86 0.0 26 25   99.26     LegendNANA
04:00 11.2 9.3 88 0.3 26 25   99.32     LegendNANA
05:00 11.4 10.0 91 0.0 25 23   99.36     LegendNANA
06:00 11.7 10.0 90 0.2 24 21   99.40     LegendNANA
07:00 12.0 9.9 87 0.0 24 24   99.38     LegendNANA
08:00 11.9 9.7 86 0.0 24 29   99.44     LegendNANA
09:00 11.1 9.6 90 0.0 24 25   99.50     LegendNANA
10:00 11.7 10.0 89 0.4 25 28   99.55     LegendNANA
11:00 12.3 10.6 89 0.0 25 26   99.63     LegendNANA
12:00 13.0 11.8 93 0.3 25 23   99.68     LegendNANA
13:00 14.1 11.5 84 0.0 25 21   99.72     LegendNANA
14:00 14.7 9.2 70 0.0 27 20   99.76     LegendNANA
15:00 14.2 11.4 83 0.0 24 19   99.82     LegendNANA
16:00 15.4 7.5 59 0.0 29 22   99.88     LegendNANA
17:00 14.4 5.9 57 0.0 31 18   100.00     LegendNANA
18:00 12.9 5.3 60 0.0 32 25   100.13     LegendNANA
19:00 11.8 4.5 61 0.0 32 23   100.25     LegendNANA
20:00 11.3 4.5 63 0.0 29 16   100.34     LegendNANA
21:00 11.5 4.2 61 0.0 28 17   100.41     LegendNANA
22:00 11.6 2.2 52 0.0 30 19   100.46     LegendNANA
23:00 11.1 1.6 52 0.0 30 16   100.49     LegendNANA

Notes on Data Quality.

Legend

  • E = Estimated
  • M = Missing
  • NA = Not Available*
  • [empty] = Indicates an unobserved value
Date modified: